Regional Weather Roundup
Issued by NWS

Home | Current Version | Previous Version | Text Only | Print | Product List | Glossary Off
Versions: 1 2 3 4 5 6 7 8 9 10 11 12 13 14 15 16 17 18 19 20 21 22 23 24 25 26 27 28 29 30 31 32 33 34 35 36 37 38 39 40 41 42 43 44 45 46 47 48 49 50

000
ASUS45 KBOI 261410
RWRID

IDAHO REGIONAL WEATHER ROUNDUP
NATIONAL WEATHER SERVICE BOISE ID
800 AM MDT WED APR 26 2017

NOTE: "FAIR" INDICATES FEW OR NO CLOUDS BELOW 12000 FEET
WITH NO SIGNIFICANT WEATHER AND/OR OBSTRUCTIONS TO VISIBILITY

IDZ012-014-261500-
SOUTHWEST IDAHO


CITY           SKY/WX    TMP DP  RH WIND       PRES   REMARKS
BOISE          LGT RAIN  45  42  89 SE10      29.84F
CALDWELL       CLOUDY    47  42  83 E6        29.84F
MOUNTAIN HOME  PTSUNNY   46  46  99 E6        29.85F
$$

IDZ016-017-261500-
SOUTHCENTRAL IDAHO


CITY           SKY/WX    TMP DP  RH WIND       PRES   REMARKS
BURLEY         CLOUDY    43  36  76 SW9       29.87S
JEROME         CLOUDY    43  37  79 CALM      29.88R
TWIN FALLS     CLOUDY    45  39  79 SW10      29.88R
$$

IDZ019>023-261500-
SOUTHEAST IDAHO


CITY           SKY/WX    TMP DP  RH WIND       PRES   REMARKS
IDAHO FALLS    CLOUDY    41  34  76 SW16      29.83R
POCATELLO      CLOUDY    44  33  65 SW16      29.87R
REXBURG        CLOUDY    39  32  76 SW10      29.82R WCI  32
$$

IDZ006-010-011-018-031-032-261500-
CENTRAL IDAHO MOUNTAINS


CITY           SKY/WX    TMP DP  RH WIND       PRES   REMARKS
MCCALL         CLOUDY    37  34  89 N3        29.78F
HAILEY         PTSUNNY   36  34  93 SE7       29.86R WCI  30
STANLEY          N/A     33  29  85 CALM      29.82F
SALMON         CLOUDY    39  36  87 CALM      29.78R
CHALLIS        CLOUDY    42  28  57 CALM      29.78R
$$

IDZ002-004-006-007-026-261500-
NORTHERN IDAHO


CITY           SKY/WX    TMP DP  RH WIND       PRES   REMARKS
LEWISTON       CLOUDY    48  45  89 CALM      29.76R
LOWELL           N/A     45  42  89 CALM      29.80S
COEUR D`ALENE  LGT RAIN  42  40  92 S8        29.71F
MULLAN PASS    LGT SNOW  30  30 100 VRB5      29.67F VSB 3/4 WCI  25
$$



USA.gov is the U.S. government's official web portal to all federal, state and local government web resources and services.